Regional Weather Roundup
Issued by NWS

Home | Current Version | Previous Version | Graphics & Text | Print | Product List | Glossary On
Versions: 1 2 3 4 5 6 7 8 9 10 11 12 13 14 15 16 17 18 19 20 21 22 23 24 25 26 27 28 29 30 31 32 33 34 35 36 37 38 39 40 41 42 43 44 45 46 47 48 49 50
000
ASUS45 KPSR 201310
RWRAZ

ARIZONA REGIONAL HOURLY WEATHER ROUNDUP
NATIONAL WEATHER SERVICE PHOENIX AZ
600 AM MST SUN APR 20 2014

NOTE: FAIR INDICATES FEW OR NO CLOUDS BELOW 12,000 FEET WITH NO
SIGNIFICANT WEATHER AND/OR OBSTRUCTIONS TO VISIBILITY.

AZZ001>003-036-201400-
NORTHWEST ARIZONA

CITY           SKY/WX    TMP DP  RH WIND       PRES   REMARKS
BULLHEAD CITY  CLEAR     68  39  34 CALM      29.97R
KINGMAN        CLEAR     55  36  48 SE6       30.08R
$$

AZZ004>008-015-016-018-201400-
NORTH CENTRAL ARIZONA

CITY           SKY/WX    TMP DP  RH WIND       PRES   REMARKS
GRAND CANYON   CLEAR     29  28  96 CALM      30.22R
WILLIAMS       CLEAR     34  32  93 SE7       30.29R WCI  28
PRESCOTT       CLEAR     44  34  67 CALM      30.16R
FLAGSTAFF      CLEAR     33  29  85 CALM      30.22R
PAYSON         CLEAR     48  39  71 NE5       30.18R
PAGE           CLEAR     54  35  48 CALM      30.10R
$$

AZZ009>014-017-201400-
NORTHEAST ARIZONA

CITY           SKY/WX    TMP DP  RH WIND       PRES   REMARKS
WINSLOW        CLEAR     40  36  86 E7        30.15R
SAINT JOHNS    CLEAR     40  33  76 S7        30.16R
WINDOW ROCK    CLEAR     35  31  85 CALM      30.19R
SHOW LOW       CLEAR     39  34  81 S8        30.22R WCI  34
$$

AZZ023-201400-
GREATER PHOENIX AREA

CITY           SKY/WX    TMP DP  RH WIND       PRES   REMARKS
PHOENIX        CLEAR     66  43  43 E10       29.99R
BUCKEYE          N/A     63  39  42 CALM      30.00R
LUKE AFB       NOT AVBL
DEER VALLEY    CLEAR     65  41  41 E7        30.01R
SCOTTSDALE     CLEAR     64  43  46 S3        30.02R
MESA-FALCON    CLEAR     64  41  42 NE6       30.01
MESA-GATEWAY   CLEAR     61  39  44 E6        30.03R
CHANDLER       CLEAR     61  43  51 NE6       30.01
$$

AZZ027-028-201400-
SOUTHWEST MARICOPA COUNTY AND PINAL COUNTY

CITY           SKY/WX    TMP DP  RH WIND       PRES   REMARKS
CASA GRANDE    CLEAR     55  39  54 CALM      30.03R
$$

AZZ503-504-507>509-201400-
SOUTHEAST ARIZONA

CITY           SKY/WX    TMP DP  RH WIND       PRES   REMARKS
TUCSON         CLEAR     58  41  53 SE12      30.08R
DAVIS-MONTHAN  CLEAR     55  42  61 S8        30.07R
RYAN FIELD       N/A     52  37  58 CALM      30.08
NOGALES        CLEAR     45  37  73 NE3       30.10S
SIERRA VISTA   CLEAR     50  38  63 MISG      30.14R
DOUGLAS        CLEAR     40  36  86 NE3       30.13R
SAFFORD        CLEAR     48  38  68 CALM      30.09R
$$

AZZ020-021-025-026-031-201400-
SOUTHWEST ARIZONA

CITY           SKY/WX    TMP DP  RH WIND       PRES   REMARKS
YUMA           CLEAR     66  46  48 CALM      29.96R
$$

CAZ031-033-041-043-047-048-061-201400-
SOUTHERN CALIFORNIA

CITY           SKY/WX    TMP DP  RH WIND       PRES   REMARKS
DOWNTOWN L.A.  PTCLDY    59  55  87 CALM      30.03R
L.A. AIRPORT   PTCLDY    58  54  86 NE5       30.04R
SAN DIEGO      CLOUDY    61  55  81 NE3       30.05R
BURBANK        CLEAR     56  50  80 SE3       30.03R
ONTARIO        CLEAR     56  52  86 CALM      30.03S
RIVERSIDE      CLEAR     56  50  80 CALM      30.04S
PALM SPRINGS   CLEAR     68  51  54 CALM      29.97R
EL CENTRO NAS    N/A     60  49  66 E7        29.93R
IMPERIAL       CLEAR     65  54  67 SE5       29.93R
BLYTHE         CLEAR     69  42  37 S6        29.95R
NEEDLES        CLEAR     68  37  32 W6        29.97R
$$

NVZ020-UTZ003-201400-
SOUTHERN NEVADA-UTAH

CITY           SKY/WX    TMP DP  RH WIND       PRES   REMARKS
LAS VEGAS      PTCLDY    66  36  32 SW9       29.96R
SALT LAKE CITY MOCLDY    53  38  56 NE3       30.06R
$$

NMZ009-TXZ055-201400-
NEW MEXICO-WEST TEXAS

CITY           SKY/WX    TMP DP  RH WIND       PRES   REMARKS
ALBUQUERQUE    MOCLDY    46  43  89 SE6       30.14R
EL PASO        PTCLDY    51  49  92 N3        30.12R
$$


........................KEY........................
SKY/WX - SKY CONDITION/WEATHER
TMP    - TEMPERATURE IN FAHRENHEIT
DP     - DEW POINT IN FAHRENHEIT
RH     - RELATIVE HUMIDITY IN PERCENT
WIND   - DIRECTION AND SPEED IN MILES PER HOUR (MPH)
VRB    - VARIABLE WIND DIRECTION
PRES   - MEAN SEA LEVEL PRESSURE IN INCHES OF MERCURY
         F - FALLING PRESSURE   R - RISING PRESSURE
         S - STEADY PRESSURE
VSB    - VISIBILITY IN MILES
HX     - HEAT INDEX IN FAHRENHEIT
WCI    - WIND CHILL INDEX IN FAHRENHEIT
TC     - TEMPERATURE IN CELSIUS WHICH IS ALSO KNOWN AS
         TEMPERATURE IN CENTIGRADE
AFB    - AIR FORCE BASE
         LUKE AFB IS LUKE AIR FORCE BASE
         DAVIS-MONTHAN IS DAVIS-MONTHAN AIR FORCE BASE
NAS    - NAVAL AIR STATION
         EL CENTRO NAS IS EL CENTRO NAVAL AIR STATION
N/A    - NOT AVAILABLE



USA.gov is the U.S. government's official web portal to all federal, state and local government web resources and services.